When you browse on this site, cookies collect data to enhance your experience and personalize the content and advertising you see.
Visit our Privacy Policy to learn more. By continuing to use the site, you agree to this use of cookies and data.
  • In Switzerland
  • List of Countries
  • For 7 days
  • Water Temperature
  • Weather Map
  • Weather Widgets
  • user-avatar
    Login

    Hourly Weather Matlock

    Today, 18 September, Wednesday

    Time Temperature Precipitation Wind Pressure Humidity
    00:00 +9°C° 0 mm 1 mps 755 mmHg 83%
    01:00 +8°C° 0 mm 1 mps 755 mmHg 84%
    02:00 +7°C° 0 mm 0 mps 755 mmHg 84%
    03:00 +7°C° 0 mm 0 mps 755 mmHg 84%
    04:00 +8°C° 0 mm 1 mps 755 mmHg 85%
    05:00 +8°C° 0 mm 1 mps 755 mmHg 86%
    06:00 +8°C° 0 mm 1 mps 755 mmHg 85%
    07:00 +10°C° 0 mm 1 mps 755 mmHg 81%
    08:00 +11°C° 0 mm 1 mps 755 mmHg 76%
    09:00 +13°C° 0 mm 1 mps 755 mmHg 72%
    10:00 +14°C° 0 mm 1 mps 755 mmHg 68%
    11:00 +15°C° 0 mm 2 mps 755 mmHg 63%
    12:00 +16°C° 0 mm 2 mps 756 mmHg 59%
    13:00 +17°C° 0 mm 2 mps 755 mmHg 59%
    14:00 +17°C° 0 mm 2 mps 755 mmHg 59%
    15:00 +18°C° 0 mm 2 mps 755 mmHg 59%
    16:00 +16°C° 0 mm 2 mps 755 mmHg 65%
    17:00 +15°C° 0 mm 2 mps 755 mmHg 70%
    18:00 +14°C° 0 mm 2 mps 755 mmHg 75%
    19:00 +13°C° 0 mm 2 mps 755 mmHg 78%
    20:00 +12°C° 0 mm 2 mps 755 mmHg 80%
    21:00 +11°C° 0 mm 1 mps 756 mmHg 82%
    22:00 +11°C° 0 mm 1 mps 756 mmHg 83%
    23:00 +11°C° 0 mm 1 mps 756 mmHg 84%

    Tomorrow, 19 September, Thursday

    Time Temperature Precipitation Wind Pressure Humidity
    00:00 +11°C° 0 mm 1 mps 756 mmHg 85%
    01:00 +11°C° 0 mm 1 mps 756 mmHg 86%
    02:00 +11°C° 0 mm 1 mps 756 mmHg 87%
    03:00 +11°C° 0 mm 1 mps 756 mmHg 88%
    04:00 +10°C° 0 mm 0 mps 756 mmHg 88%
    05:00 +9°C° 0 mm 0 mps 756 mmHg 88%
    06:00 +9°C° 0 mm 0 mps 756 mmHg 88%
    07:00 +11°C° 0 mm 0 mps 756 mmHg 83%
    08:00 +13°C° 0 mm 0 mps 756 mmHg 78%
    09:00 +15°C° 0 mm 1 mps 757 mmHg 73%
    10:00 +18°C° 0 mm 1 mps 757 mmHg 69%
    11:00 +19°C° 0 mm 1 mps 757 mmHg 66%
    12:00 +20°C° 0 mm 1 mps 756 mmHg 62%
    13:00 +20°C° 0 mm 1 mps 756 mmHg 62%
    14:00 +20°C° 0 mm 1 mps 756 mmHg 61%
    15:00 +21°C° 0 mm 1 mps 756 mmHg 61%
    16:00 +19°C° 0 mm 1 mps 756 mmHg 66%
    17:00 +18°C° 0 mm 1 mps 755 mmHg 71%
    18:00 +16°C° 0 mm 1 mps 755 mmHg 76%
    19:00 +15°C° 0 mm 1 mps 755 mmHg 78%
    20:00 +15°C° 0 mm 1 mps 755 mmHg 79%
    21:00 +14°C° 0 mm 1 mps 756 mmHg 81%
    22:00 +13°C° 0 mm 1 mps 755 mmHg 82%
    23:00 +13°C° 0 mm 1 mps 755 mmHg 83%

    Day after tomorrow, 20 September, Friday

    Time Temperature Precipitation Wind Pressure Humidity
    00:00 +13°C° 0 mm 1 mps 755 mmHg 83%
    01:00 +12°C° 0 mm 1 mps 755 mmHg 84%
    02:00 +12°C° 0 mm 1 mps 755 mmHg 85%
    03:00 +12°C° 0 mm 1 mps 754 mmHg 86%
    04:00 +11°C° 0 mm 1 mps 754 mmHg 87%
    05:00 +11°C° 0 mm 1 mps 754 mmHg 87%
    06:00 +11°C° 0 mm 1 mps 753 mmHg 88%
    07:00 +12°C° 0 mm 2 mps 753 mmHg 84%
    08:00 +14°C° 0 mm 2 mps 753 mmHg 79%
    09:00 +15°C° 0 mm 2 mps 753 mmHg 75%
    10:00 +16°C° 0 mm 3 mps 753 mmHg 72%
    11:00 +17°C° 0 mm 3 mps 753 mmHg 69%
    12:00 +18°C° 0 mm 4 mps 752 mmHg 67%
    13:00 +19°C° 0 mm 4 mps 752 mmHg 66%
    14:00 +19°C° 0 mm 5 mps 751 mmHg 64%
    15:00 +19°C° 0 mm 5 mps 750 mmHg 63%
    16:00 +17°C° 0 mm 5 mps 750 mmHg 66%
    17:00 +17°C° 0 mm 4 mps 749 mmHg 69%
    18:00 +15°C° 0 mm 4 mps 748 mmHg 72%
    19:00 +14°C° 0 mm 4 mps 748 mmHg 73%
    20:00 +13°C° 0 mm 5 mps 748 mmHg 73%
    21:00 +12°C° 0 mm 5 mps 748 mmHg 74%
    22:00 +10°C° 0 mm 5 mps 748 mmHg 77%
    23:00 +11°C° 0 mm 4 mps 747 mmHg 80%

    21 September, Saturday

    Time Temperature Precipitation Wind Pressure Humidity
    00:00 +10°C° 0 mm 4 mps 746 mmHg 84%
    01:00 +10°C° 0 mm 4 mps 746 mmHg 85%
    02:00 +10°C° 0 mm 4 mps 745 mmHg 86%
    03:00 +10°C° 0 mm 4 mps 745 mmHg 87%
    04:00 +10°C° 0 mm 4 mps 744 mmHg 86%
    05:00 +10°C° 0 mm 4 mps 744 mmHg 85%
    06:00 +10°C° 0 mm 4 mps 743 mmHg 83%
    07:00 +10°C° 0 mm 5 mps 743 mmHg 78%
    08:00 +12°C° 0 mm 5 mps 743 mmHg 73%
    09:00 +14°C° 0 mm 6 mps 742 mmHg 67%
    10:00 +15°C° 0 mm 6 mps 742 mmHg 64%
    11:00 +17°C° 0 mm 6 mps 741 mmHg 61%
    12:00 +19°C° 0 mm 6 mps 741 mmHg 58%
    13:00 +20°C° 0 mm 6 mps 740 mmHg 58%
    14:00 +20°C° 0 mm 5 mps 739 mmHg 58%
    15:00 +21°C° 0 mm 5 mps 739 mmHg 59%
    16:00 +20°C° 0 mm 5 mps 739 mmHg 63%
    17:00 +19°C° 0 mm 5 mps 738 mmHg 67%
    18:00 +18°C° 0 mm 4 mps 738 mmHg 71%
    19:00 +17°C° 0 mm 4 mps 738 mmHg 73%
    20:00 +15°C° 0 mm 4 mps 737 mmHg 75%
    21:00 +14°C° 0 mm 3 mps 737 mmHg 77%
    22:00 +14°C° 0.3 mm 3 mps 737 mmHg 80%
    23:00 +16°C° 0.3 mm 3 mps 736 mmHg 82%

    22 September, Sunday

    Time Temperature Precipitation Wind Pressure Humidity
    00:00 +16°C° 0.3 mm 3 mps 736 mmHg 84%
    01:00 +16°C° 0.1 mm 3 mps 736 mmHg 86%
    02:00 +16°C° 0.1 mm 3 mps 736 mmHg 88%
    03:00 +16°C° 0.1 mm 3 mps 735 mmHg 90%
    04:00 +16°C° 0.1 mm 2 mps 735 mmHg 92%
    05:00 +16°C° 0.1 mm 2 mps 735 mmHg 94%
    06:00 +16°C° 0.1 mm 2 mps 735 mmHg 95%
    07:00 +16°C° 0.2 mm 3 mps 735 mmHg 93%
    08:00 +16°C° 0.2 mm 3 mps 736 mmHg 91%
    09:00 +15°C° 0.2 mm 4 mps 736 mmHg 89%
    10:00 +17°C° 0.5 mm 4 mps 736 mmHg 86%
    11:00 +17°C° 0.5 mm 4 mps 736 mmHg 83%
    12:00 +17°C° 0.5 mm 4 mps 736 mmHg 80%
    13:00 +17°C° 0.1 mm 5 mps 736 mmHg 74%
    14:00 +17°C° 0.1 mm 5 mps 736 mmHg 69%
    15:00 +19°C° 0.1 mm 5 mps 735 mmHg 63%
    16:00 +17°C° 0.2 mm 5 mps 736 mmHg 69%
    17:00 +16°C° 0.2 mm 5 mps 736 mmHg 75%
    18:00 +14°C° 0.2 mm 4 mps 736 mmHg 82%
    19:00 +13°C° 0 mm 5 mps 737 mmHg 83%
    20:00 +13°C° 0 mm 6 mps 737 mmHg 85%
    21:00 +11°C° 0 mm 7 mps 738 mmHg 86%
    22:00 +10°C° 0 mm 6 mps 738 mmHg 87%
    23:00 +10°C° 0 mm 5 mps 739 mmHg 87%

    23 September, Monday

    Time Temperature Precipitation Wind Pressure Humidity
    00:00 +9°C° 0 mm 5 mps 739 mmHg 87%
    01:00 +10°C° 0 mm 4 mps 739 mmHg 89%
    02:00 +8°C° 0 mm 4 mps 739 mmHg 90%
    03:00 +9°C° 0 mm 3 mps 740 mmHg 91%
    04:00 +9°C° 0 mm 3 mps 740 mmHg 92%
    05:00 +9°C° 0 mm 3 mps 740 mmHg 92%
    06:00 +9°C° 0 mm 3 mps 740 mmHg 93%
    07:00 +10°C° 0 mm 3 mps 740 mmHg 90%
    08:00 +11°C° 0 mm 4 mps 739 mmHg 87%
    09:00 +12°C° 0 mm 5 mps 739 mmHg 84%
    10:00 +12°C° 0.7 mm 5 mps 739 mmHg 87%
    11:00 +12°C° 0.7 mm 4 mps 738 mmHg 89%
    12:00 +12°C° 0.7 mm 4 mps 738 mmHg 92%
    13:00 +13°C° 1.3 mm 5 mps 737 mmHg 93%
    14:00 +13°C° 1.3 mm 5 mps 736 mmHg 94%
    15:00 +14°C° 1.3 mm 5 mps 736 mmHg 95%
    16:00 +15°C° 0.9 mm 5 mps 736 mmHg 95%
    17:00 +15°C° 0.9 mm 5 mps 735 mmHg 95%
    18:00 +16°C° 0.9 mm 5 mps 735 mmHg 96%
    19:00 +16°C° 0.1 mm 5 mps 736 mmHg 95%
    20:00 +16°C° 0.1 mm 5 mps 736 mmHg 94%
    21:00 +16°C° 0.1 mm 5 mps 736 mmHg 93%
    22:00 +15°C° 0 mm 5 mps 737 mmHg 93%
    23:00 +15°C° 0 mm 5 mps 737 mmHg 93%
    Show more